Temperature
8 8 8 8 8 9 9 9 9 8 8 8 8 8 8 8 8 8 8 8 7 7 7 6 6 6 5 5 4 4 4 3 3 3 2 2 1 1
8 8 8 8 8 8 8 8 8 8 8 8 8 8 8 8 8 8 7 7 7 7 7 6 6 5 5 5 4 4 3 3 2 2 2 1 1 1
8 8 8 8 8 8 8 8 8 8 8 8 8 8 7 7 7 7 7 7 7 7 6 6 6 5 5 4 4 3 3 2 2 2 1 1 0 -0
7 7 8 7 7 8 8 8 8 8 8 7 7 7 7 7 7 7 7 7 6 6 6 6 5 5 5 4 4 3 3 2 2 1 1 0 -0 -0
7 7 7 7 7 7 7 7 8 8 7 7 7 7 7 7 7 6 6 6 6 6 6 5 5 5 4 4 3 3 2 2 1 1 0 -0 -0 -1
7 7 7 7 7 7 7 7 7 7 7 7 7 7 6 6 6 6 6 6 6 6 5 5 5 4 4 3 3 2 2 1 1 1 -0 -1 -1 -1
6 6 6 7 7 7 7 7 7 7 7 6 6 6 6 6 6 6 6 6 5 5 5 5 4 4 3 3 2 2 2 1 1 0 -0 -1 -1 -1
6 6 6 6 6 6 7 7 7 7 6 6 6 6 6 6 6 6 5 5 5 5 5 4 4 3 3 3 2 2 1 1 0 -0 -1 -1 -1 -1
5 6 6 6 6 6 6 6 6 6 6 7 6 6 6 6 6 6 5 5 5 5 4 4 4 3 3 2 2 1 1 0 -0 -0 -1 -1 -1 -1
5 5 5 6 6 6 6 6 6 6 6 6 6 6 6 6 6 6 5 5 4 4 4 3 3 3 3 2 1 1 0 -0 -0 -1 -1 -1 -2 -2
5 5 5 5 5 5 5 6 5 6 6 6 6 6 6 6 5 5 5 4 4 3 3 3 3 3 2 2 1 0 -0 -1 -1 -1 -1 -2 -2 -2
5 5 5 5 5 5 5 5 5 5 5 5 5 5 5 5 5 5 5 4 4 3 3 2 2 2 1 1 0 -0 -1 -1 -1 -1 -2 -2 -2 -2
4 4 4 4 5 5 5 5 5 5 5 5 5 5 4 4 4 4 4 4 4 3 3 2 2 1 1 0 -0 -0 -1 -1 -2 -2 -2 -2 -2 -3
4 4 4 4 4 5 5 5 5 5 4 4 4 4 4 4 4 4 4 4 4 3 3 2 2 1 1 0 -1 -1 -1 -2 -2 -2 -2 -2 -3 -3
4 4 4 4 4 4 4 4 4 4 4 4 3 3 3 3 3 3 3 3 3 2 2 2 1 1 1 0 -0 -1 -1 -2 -2 -2 -2 -3 -3 -3
3 3 4 4 4 4 4 4 4 4 4 3 3 3 3 3 3 3 3 2 2 1 1 1 1 1 0 -0 -0 -1 -1 -2 -2 -2 -3 -3 -3 -3
3 3 3 3 3 3 3 3 3 3 3 3 3 3 2 2 2 2 2 2 1 1 1 1 0 -0 -0 -1 -1 -1 -1 -2 -2 -2 -3 -3 -3 -3
2 2 2 3 2 2 2 2 2 2 2 2 2 2 2 2 2 2 1 1 1 1 1 1 0 -0 -1 -1 -1 -1 -2 -2 -2 -2 -3 -3 -3 -4
2 2 2 2 2 2 2 2 2 2 2 2 2 2 2 2 2 1 1 1 1 1 0 0 -0 -1 -1 -2 -2 -2 -2 -2 -2 -3 -3 -3 -3 -4
2 2 2 2 2 2 2 2 1 1 1 2 2 2 2 2 1 1 1 1 1 0 -0 -1 -1 -1 -1 -1 -2 -2 -2 -2 -2 -3 -3 -3 -4 -4
1 1 1 1 1 1 1 1 1 1 1 2 2 2 2 1 1 1 1 0 0 -0 -0 -1 -1 -1 -2 -2 -2 -2 -3 -3 -3 -3 -3 -3 -4 -4
1 1 1 1 1 1 1 1 1 1 1 1 1 1 1 1 1 1 1 0 0 -0 -1 -1 -2 -2 -2 -2 -2 -2 -3 -3 -4 -4 -4 -4 -4 -4
0 1 1 1 1 1 1 1 1 1 1 1 1 1 1 1 1 1 0 0 -0 -0 -1 -1 -2 -2 -2 -2 -2 -3 -3 -3 -4 -4 -4 -4 -4 -4
Wind_Speed
12 12 10 9 8 8 8 7 7 6 7 7 6 8 8 8 9 10 11 12 13 11 10 9 8 7 7 7 7 7 7 7 8 8 10 11 12 13
9 11 11 9 9 8 8 8 7 7 6 5 5 5 7 6 9 10 10 11 13 12 10 9 8 7 7 7 6 6 6 6 7 8 9 10 11 12
11 11 11 10 9 8 8 8 7 7 7 5 3 4 7 7 7 8 8 9 9 11 11 9 8 7 7 6 6 6 6 6 6 7 8 9 10 12
11 11 11 9 10 9 8 9 8 8 7 7 5 5 7 7 7 7 6 6 7 9 10 9 9 8 7 6 5 5 5 5 6 6 7 9 10 11
12 11 11 11 11 9 9 9 8 7 6 6 5 4 4 5 6 5 5 4 4 7 9 9 9 8 7 6 4 4 4 4 5 5 6 8 9 10
11 11 11 11 11 11 9 9 8 8 7 6 5 5 4 5 5 5 4 4 3 4 5 6 7 7 7 6 4 4 3 3 4 5 6 7 9 10
9 10 10 10 11 10 8 9 9 8 7 6 6 5 5 5 6 5 5 3 3 3 3 3 4 4 5 5 5 3 3 3 3 4 6 7 8 9
8 9 9 10 11 11 10 10 10 10 9 8 7 8 8 7 6 6 5 4 3 3 3 3 3 3 3 3 4 4 3 3 3 4 5 6 7 8
8 8 8 9 10 9 9 9 9 9 10 10 9 10 9 9 9 8 7 5 3 3 3 3 2 2 2 4 5 5 3 3 3 4 4 5 7 7
7 8 8 9 9 9 8 8 7 7 8 8 8 8 8 8 9 8 7 4 3 3 2 2 2 1 1 3 6 5 4 3 2 3 4 5 6 7
6 7 8 9 10 11 9 8 7 5 4 6 5 5 6 7 8 6 6 5 2 2 2 2 1 0 1 2 4 5 4 3 2 3 4 5 6 6
4 5 8 9 10 12 10 9 8 6 5 4 5 5 6 7 9 8 7 6 3 3 3 3 2 1 1 1 1 3 3 4 3 3 3 4 5 4
3 4 5 9 9 10 10 9 9 7 5 5 5 4 4 4 4 4 3 5 4 2 4 4 2 2 2 1 1 2 2 2 2 2 3 3 4 4
3 4 5 8 8 8 7 8 10 8 5 5 5 4 4 4 4 4 4 3 2 2 6 5 3 3 3 2 1 1 1 1 1 1 2 2 3 3
3 3 5 7 7 6 7 9 8 6 6 6 6 5 4 4 5 5 6 6 6 5 5 3 3 4 3 2 2 2 1 1 1 1 1 2 2 2
1 2 5 6 5 5 5 6 4 5 6 5 5 4 5 5 5 4 4 4 4 3 4 4 3 3 2 2 2 2 1 1 1 1 1 2 1 1
1 1 3 4 4 3 3 3 3 4 5 5 5 5 5 5 4 4 4 3 3 3 2 3 4 4 2 1 2 2 1 0 1 0 1 1 1 1
2 3 4 4 4 4 4 3 3 3 4 5 5 5 6 6 5 4 4 3 4 4 3 3 3 2 2 2 1 2 1 0 0 0 0 1 1 1
2 4 4 4 4 4 4 4 3 3 4 5 5 5 5 6 6 5 5 4 4 4 4 4 3 2 2 1 1 0 1 1 0 0 0 1 1 2
2 3 4 4 4 4 4 3 3 4 4 5 5 5 6 6 6 6 5 5 5 4 4 3 3 2 1 2 2 0 0 1 1 0 1 2 2 2
2 2 3 3 3 3 3 4 4 4 4 5 5 5 6 6 6 6 5 7 6 5 5 3 2 3 3 3 3 2 1 2 1 0 0 1 1 1
2 2 2 3 3 3 4 4 4 4 5 4 5 5 5 6 6 7 6 6 5 5 4 4 4 3 2 2 3 3 2 2 3 2 2 2 1 0
2 2 2 3 3 3 4 4 4 4 4 4 5 5 5 5 5 5 6 6 5 6 6 5 4 2 2 3 4 4 3 3 2 2 3 5 4 4
Wind_Direction
224 223 224 225 222 221 218 213 212 221 224 215 208 206 205 207 194 204 212 208 213 214 214 216 220 229 241 253 267 280 288 298 306 310 315 317 321 325
221 221 222 223 221 219 215 216 220 224 229 215 210 202 200 203 198 208 212 202 205 207 209 210 216 226 238 249 261 273 282 292 301 308 312 318 322 325
219 220 222 222 221 218 215 212 214 216 224 222 207 198 199 201 199 207 209 206 206 202 206 209 214 222 232 242 256 267 276 287 299 308 315 319 321 323
220 221 223 221 220 217 213 212 211 212 216 214 206 199 204 200 198 202 205 207 208 200 203 207 212 219 224 231 240 257 272 288 299 306 312 318 321 323
220 222 224 219 219 215 212 211 208 206 208 209 203 194 198 191 190 197 200 204 205 198 200 205 211 216 218 218 227 246 267 282 293 302 311 318 322 325
224 223 224 220 219 215 211 210 204 197 197 200 194 187 185 183 183 188 196 204 201 192 201 205 206 209 208 206 218 232 250 269 288 300 309 317 323 326
231 226 224 218 218 215 210 205 199 195 192 195 196 189 185 180 192 190 196 189 195 191 197 198 195 203 199 203 212 222 240 265 287 300 308 316 324 327
234 231 224 217 210 211 209 205 201 197 195 199 202 198 198 194 187 182 177 177 206 189 191 201 193 205 200 195 205 218 232 254 279 295 304 314 321 324
235 230 227 213 205 209 206 200 200 203 203 203 202 202 198 195 185 185 188 194 205 169 174 194 193 210 196 196 197 207 218 237 272 291 303 316 322 325
242 230 218 211 204 199 201 202 205 210 213 214 211 205 197 190 189 186 179 154 107 139 160 191 206 219 198 195 191 204 214 225 262 293 306 317 322 323
241 229 216 209 194 186 191 192 197 204 191 187 184 175 166 168 163 150 150 151 157 173 175 173 177 183 203 210 197 203 210 214 247 287 304 318 325 321
244 231 205 200 191 186 193 190 195 195 179 169 164 157 166 162 162 169 170 169 157 175 172 160 152 138 192 226 224 209 215 222 235 258 289 311 324 321
242 226 205 189 190 192 196 197 190 181 176 171 166 163 162 162 162 157 163 168 165 173 166 158 156 162 167 180 232 241 235 239 243 253 261 293 311 325
235 226 205 185 189 192 195 183 169 166 169 165 165 167 167 162 148 131 110 86 81 147 162 159 158 170 160 165 193 231 256 228 256 287 293 280 282 306
230 216 198 182 183 185 174 169 168 169 166 168 171 170 163 150 133 115 97 86 72 82 126 140 149 161 167 172 170 189 214 244 254 287 289 283 290 299
204 172 165 163 168 169 164 161 169 173 168 167 159 148 139 139 139 135 128 121 102 80 65 79 114 145 156 151 168 184 191 197 217 278 294 297 294 310
211 192 167 164 163 162 159 155 155 161 158 151 151 152 148 144 141 140 137 136 129 136 115 74 67 72 75 130 145 152 154 149 206 251 294 293 303 315
175 173 173 173 174 171 168 163 158 161 157 153 154 157 156 156 151 148 147 142 138 141 137 131 117 97 96 62 57 153 141 129 228 260 295 290 303 332
187 179 179 180 175 172 169 168 167 165 157 156 157 159 156 157 158 159 158 149 143 142 144 150 157 149 144 132 71 339 159 155 149 224 292 308 295 311
195 186 185 181 178 174 170 163 158 160 161 160 158 160 160 162 163 164 166 162 152 145 146 153 164 169 171 157 150 170 256 165 151 108 15 358 352 326
207 199 191 182 179 175 170 163 165 171 167 161 160 163 166 165 166 166 165 160 152 152 159 160 136 108 101 110 108 95 55 16 9 170 69 41 16 5
225 208 199 183 178 175 169 166 165 169 166 166 166 168 170 170 167 165 163 161 159 151 140 127 128 125 113 119 117 111 90 54 50 76 61 21 9 324
241 219 204 189 180 175 172 171 172 175 174 174 171 169 168 166 163 161 158 152 145 139 133 131 126 102 93 114 119 111 104 93 80 71 57 32 27 31
Height
1428 1430 1432 1434 1437 1439 1441 1442 1444 1444 1447 1448 1449 1451 1454 1456 1458 1460 1461 1463 1464 1464 1465 1465 1465 1464 1463 1461 1460 1458 1456 1454 1451 1449 1446 1444 1441 1438
1421 1424 1426 1428 1431 1432 1434 1437 1438 1440 1441 1442 1444 1446 1448 1451 1453 1455 1456 1458 1459 1459 1460 1460 1460 1459 1458 1457 1455 1454 1452 1449 1447 1445 1443 1440 1438 1435
1415 1417 1419 1422 1424 1426 1428 1430 1432 1435 1436 1437 1439 1441 1443 1445 1447 1449 1451 1453 1453 1454 1455 1455 1455 1454 1453 1452 1451 1449 1447 1445 1443 1441 1439 1437 1435 1432
1409 1411 1413 1416 1418 1420 1422 1424 1426 1429 1431 1431 1433 1435 1437 1439 1442 1444 1446 1447 1448 1449 1450 1450 1450 1449 1448 1447 1446 1445 1443 1441 1440 1438 1436 1433 1431 1429
1403 1405 1407 1410 1411 1414 1416 1418 1420 1423 1425 1427 1427 1430 1432 1434 1437 1439 1440 1442 1443 1444 1445 1445 1445 1444 1443 1443 1442 1441 1439 1438 1436 1434 1432 1430 1428 1425
1396 1399 1401 1403 1405 1408 1410 1412 1414 1417 1420 1421 1422 1424 1426 1429 1432 1433 1435 1437 1438 1439 1440 1440 1440 1439 1439 1438 1438 1437 1435 1434 1433 1431 1429 1427 1425 1422
1390 1392 1395 1397 1399 1402 1405 1406 1409 1411 1413 1415 1416 1418 1420 1423 1426 1428 1430 1431 1432 1434 1434 1435 1435 1435 1435 1434 1434 1433 1432 1430 1429 1428 1426 1424 1421 1419
1383 1386 1388 1391 1393 1396 1399 1401 1403 1405 1407 1409 1411 1412 1414 1417 1420 1422 1424 1425 1427 1429 1429 1430 1430 1431 1431 1431 1430 1429 1428 1427 1426 1424 1423 1421 1418 1416
1378 1380 1382 1384 1387 1389 1392 1395 1398 1400 1403 1405 1405 1407 1409 1412 1414 1416 1419 1421 1422 1423 1424 1425 1426 1426 1427 1427 1426 1425 1425 1424 1422 1421 1420 1418 1415 1413
1371 1373 1376 1378 1381 1384 1387 1390 1392 1395 1397 1399 1401 1403 1405 1407 1409 1412 1414 1416 1417 1419 1420 1421 1421 1422 1423 1423 1423 1422 1421 1420 1419 1418 1417 1415 1413 1410
1366 1367 1369 1372 1375 1379 1382 1384 1386 1389 1392 1394 1396 1398 1401 1403 1405 1407 1409 1411 1412 1414 1416 1417 1417 1418 1419 1419 1419 1419 1418 1417 1416 1415 1414 1412 1410 1408
1360 1362 1364 1367 1370 1373 1376 1379 1381 1383 1386 1388 1391 1394 1396 1398 1400 1402 1404 1406 1407 1409 1411 1413 1413 1414 1415 1415 1416 1416 1415 1415 1414 1413 1411 1410 1408 1406
1356 1357 1360 1363 1366 1369 1372 1375 1376 1379 1381 1384 1386 1389 1391 1393 1396 1398 1400 1402 1403 1405 1407 1408 1409 1410 1411 1411 1412 1412 1412 1412 1411 1410 1409 1408 1406 1404
1353 1354 1356 1359 1362 1365 1368 1370 1373 1376 1378 1380 1382 1385 1387 1389 1391 1394 1396 1398 1400 1402 1404 1405 1405 1406 1407 1408 1409 1409 1409 1409 1409 1408 1407 1406 1405 1403
1349 1351 1353 1356 1359 1361 1364 1367 1369 1371 1373 1376 1378 1380 1383 1385 1388 1390 1392 1395 1397 1399 1401 1402 1403 1404 1405 1405 1405 1406 1406 1406 1406 1406 1405 1404 1403 1402
1347 1348 1351 1353 1356 1358 1361 1363 1365 1367 1370 1372 1374 1377 1380 1382 1384 1386 1389 1391 1394 1396 1398 1399 1401 1402 1403 1403 1404 1403 1404 1404 1404 1404 1404 1403 1402 1401
1344 1346 1348 1350 1352 1355 1357 1360 1362 1365 1367 1369 1371 1373 1376 1378 1381 1384 1387 1389 1391 1392 1394 1396 1398 1399 1401 1401 1401 1402 1402 1402 1402 1402 1402 1401 1401 1400
1343 1344 1346 1348 1350 1352 1355 1357 1359 1361 1364 1366 1368 1370 1373 1375 1378 1381 1384 1386 1388 1390 1392 1394 1395 1397 1399 1399 1401 1401 1401 1401 1401 1401 1400 1400 1399 1399
1341 1342 1344 1346 1348 1350 1353 1355 1357 1359 1362 1364 1366 1368 1370 1373 1376 1378 1381 1384 1386 1388 1390 1391 1393 1394 1395 1397 1399 1400 1400 1399 1400 1399 1399 1399 1398 1398
1339 1340 1342 1344 1346 1348 1351 1353 1355 1357 1360 1362 1363 1365 1368 1370 1373 1376 1379 1381 1383 1385 1387 1389 1391 1392 1394 1395 1396 1397 1398 1399 1398 1398 1398 1398 1398 1398
1337 1338 1340 1342 1344 1346 1349 1351 1353 1355 1358 1360 1361 1364 1366 1368 1371 1373 1376 1379 1381 1383 1384 1387 1389 1391 1393 1394 1395 1396 1397 1398 1398 1398 1397 1397 1397 1397
1335 1337 1338 1340 1342 1344 1347 1349 1351 1354 1356 1358 1360 1362 1364 1366 1369 1371 1373 1376 1378 1381 1383 1385 1388 1390 1391 1393 1394 1395 1396 1397 1398 1398 1398 1398 1398 1396
1333 1335 1337 1339 1340 1343 1345 1347 1349 1352 1354 1356 1358 1360 1362 1364 1366 1369 1371 1374 1376 1379 1381 1383 1386 1388 1390 1391 1393 1394 1395 1397 1397 1398 1398 1399 1399 1398